FW5188 Weather Reports


time (UTC)temp
F
wind
direction
speed
knots
gust
knots
rain 1hr
in
rain 24hr
in
rain mn
in
humidity
%
barometer
mb
20260504191539 73 242 6.1 11.3 0.00 0.00 0.00 54 1014.6
20260504190036 72 270 7.8 11.3 0.00 0.00 0.00 55 1014.9
20260504184537 72 273 7.8 13.9 0.00 0.00 0.00 60 1015.0
20260504183035 71 277 5.2 13.0 0.00 0.00 0.00 59 1015.2
20260504181528 71 233 6.1 13.0 0.00 0.00 0.00 59 1015.3
20260504180027 70 284 6.1 11.3 0.00 0.00 0.00 59 1015.5
20260504174524 71 290 7.0 11.3 0.00 0.00 0.00 60 1015.6
20260504173021 70 271 7.8 14.8 0.00 0.00 0.00 60 1016.0
20260504171520 69 265 2.6 11.3 0.00 0.00 0.00 60 1016.0
20260504150103 65 279 5.2 10.4 0.00 0.00 0.00 62 1017.3
20260504081501 45 179 0.0 0.0 0.00 0.00 0.00 89 1016.7
20260504044543 47 218 0.0 0.9 0.00 0.00 0.00 87 1017.6
20260504043055 47 219 0.0 0.9 0.00 0.00 0.00 87 1017.6
20260504041538 47 252 0.0 0.0 0.00 0.00 0.00 86 1017.7
20260504040041 48 252 0.0 0.0 0.00 0.00 0.00 85 1017.9
20260504034638 49 253 0.9 2.6 0.00 0.00 0.00 83 1018.1
20260504033036 50 267 0.0 0.0 0.00 0.00 0.00 82 1018.3
20260504031547 50 267 0.0 0.0 0.00 0.00 0.00 81 1018.2
20260504030041 51 267 0.0 0.0 0.00 0.00 0.00 79 1018.1
20260504024538 52 267 0.0 0.0 0.00 0.00 0.00 77 1018.1
20260504023034 52 267 0.0 0.0 0.00 0.00 0.00 76 1018.2
20260504021544 53 267 0.0 0.0 0.00 0.00 0.00 73 1017.9
20260504020038 54 267 0.0 0.0 0.00 0.00 0.00 70 1017.7
20260504014532 55 267 0.0 0.9 0.00 0.00 0.00 66 1017.7
20260504013036 56 355 0.0 0.0 0.00 0.00 0.00 64 1017.7
20260504011533 58 355 0.0 0.0 0.00 0.00 0.00 60 1017.6
20260504010032 59 355 0.0 0.0 0.00 0.00 0.00 56 1017.6
20260504004540 60 355 0.0 1.7 0.00 0.00 0.00 51 1017.5
20260504003130 61 344 0.0 2.6 0.00 0.00 0.00 49 1017.4
20260504001535 62 331 0.9 2.6 0.00 0.00 0.00 47 1017.4
20260504000029 63 344 1.7 7.8 0.00 0.00 0.00 46 1017.4
20260503234529 63 327 3.5 7.8 0.00 0.00 0.00 45 1017.4
20260503233028 63 360 2.6 7.0 0.00 0.00 0.00 43 1017.3
20260503231527 64 336 2.6 7.8 0.00 0.00 0.00 44 1017.3
20260503230026 64 292 5.2 8.7 0.00 0.00 0.00 45 1017.3
20260503224525 64 355 5.2 9.6 0.00 0.00 0.00 45 1017.3
20260503223024 64 272 6.1 10.4 0.00 0.00 0.00 47 1017.4
20260503221523 64 360 4.3 9.6 0.00 0.00 0.00 46 1017.6
20260503220030 64 355 4.3 9.6 0.00 0.00 0.00 48 1017.6
20260503214532 65 134 1.7 8.7 0.00 0.00 0.00 49 1017.7
20260503213029 64 37 6.1 10.4 0.00 0.00 0.00 46 1017.9
20260503211518 64 308 5.2 7.8 0.00 0.00 0.00 49 1018.0
20260503210019 64 326 7.0 12.2 0.00 0.00 0.00 52 1018.3
20260503204525 64 312 3.5 7.8 0.00 0.00 0.00 54 1018.5
20260503203016 64 304 5.2 9.6 0.00 0.00 0.00 52 1018.6
20260503201514 63 295 2.6 9.6 0.00 0.00 0.00 55 1018.7
20260503200014 63 42 7.0 10.4 0.00 0.00 0.00 49 1019.0
20260503194511 63 5 6.1 9.6 0.00 0.00 0.00 50 1019.3
20260503193011 62 327 7.0 12.2 0.00 0.00 0.00 48 1019.6